TimeCST,TemperatureF,Dew PointF,Humidity,Sea Level PressureIn,VisibilityMPH,Wind Direction,Wind SpeedMPH,Gust SpeedMPH,PrecipitationIn,Events,Conditions,WindDirDegrees,DateUTC
12:13 AM,35.6,24.8,65,29.96,10.0,ESE,11.5,-,N/A,,Scattered Clouds,120,2012-12-09 06:13:00
12:34 AM,35.6,26.6,70,29.95,4.0,ESE,10.4,-,N/A,Snow,Light Snow,120,2012-12-09 06:34:00
12:54 AM,35.6,26.6,70,29.96,2.5,SE,10.4,-,N/A,Snow,Light Snow,130,2012-12-09 06:54:00
1:14 AM,35.6,28.4,75,29.95,1.0,SE,12.7,16.1,N/A,Snow,Snow,130,2012-12-09 07:14:00
1:34 AM,35.6,28.4,75,29.95,1.5,ESE,10.4,-,0.01,Snow,Light Snow,120,2012-12-09 07:34:00
1:55 AM,35.6,28.4,75,29.93,3.0,ESE,11.5,-,0.01,Snow,Light Snow,110,2012-12-09 07:55:00
2:13 AM,33.8,28.4,81,29.94,3.0,ESE,10.4,-,N/A,Snow,Light Snow,110,2012-12-09 08:13:00
2:34 AM,35.6,28.4,75,29.93,2.5,ESE,11.5,-,N/A,Snow,Light Snow,110,2012-12-09 08:34:00
2:54 AM,35.6,28.4,75,29.93,3.0,ESE,11.5,-,N/A,Snow,Light Snow,110,2012-12-09 08:54:00
3:14 AM,35.6,28.4,75,29.93,3.0,ESE,10.4,16.1,N/A,Snow,Light Snow,110,2012-12-09 09:14:00
3:34 AM,33.8,28.4,81,29.93,5.0,ESE,11.5,-,N/A,Snow,Light Snow,120,2012-12-09 09:34:00
3:54 AM,33.8,28.4,81,29.92,7.0,ESE,9.2,-,N/A,,Light Drizzle,110,2012-12-09 09:54:00
4:14 AM,33.8,28.4,81,29.93,7.0,ESE,8.1,-,N/A,,Overcast,110,2012-12-09 10:14:00
4:33 AM,33.8,28.4,81,29.92,7.0,ESE,10.4,16.1,N/A,,Overcast,110,2012-12-09 10:33:00
4:54 AM,33.8,28.4,81,29.91,7.0,ESE,12.7,18.4,N/A,,Mostly Cloudy,120,2012-12-09 10:54:00
5:14 AM,35.6,28.4,75,29.89,7.0,ESE,11.5,-,N/A,,Mostly Cloudy,110,2012-12-09 11:14:00
5:34 AM,35.6,28.4,75,29.88,7.0,ESE,12.7,18.4,N/A,,Mostly Cloudy,110,2012-12-09 11:34:00
5:54 AM,35.6,28.4,75,29.88,5.0,East,13.8,-,N/A,,Haze,100,2012-12-09 11:54:00
6:13 AM,35.6,28.4,75,29.87,7.0,ESE,15.0,-,N/A,,Overcast,110,2012-12-09 12:13:00
6:34 AM,35.6,28.4,75,29.87,7.0,ESE,15.0,-,N/A,,Scattered Clouds,110,2012-12-09 12:34:00
6:54 AM,35.6,28.4,75,29.87,7.0,ESE,17.3,24.2,N/A,,Scattered Clouds,120,2012-12-09 12:54:00
7:14 AM,35.6,28.4,75,29.87,5.0,ESE,16.1,23.0,N/A,,Haze,110,2012-12-09 13:14:00
7:34 AM,35.6,28.4,75,29.87,7.0,ESE,17.3,-,N/A,,Mostly Cloudy,120,2012-12-09 13:34:00
7:54 AM,35.6,28.4,75,29.87,3.0,ESE,17.3,-,N/A,Snow,Light Snow,120,2012-12-09 13:54:00
8:13 AM,35.6,28.4,75,29.87,1.2,ESE,15.0,-,N/A,Snow,Light Snow,120,2012-12-09 14:13:00
8:33 AM,35.6,28.4,75,29.86,0.8,ESE,13.8,-,N/A,Snow,Light Snow,120,2012-12-09 14:33:00
8:53 AM,35.6,28.4,75,29.86,1.0,ESE,13.8,-,N/A,Snow,Light Snow,110,2012-12-09 14:53:00
9:34 AM,35.6,30.2,81,29.85,0.8,ESE,16.1,-,0.01,Snow,Light Snow,110,2012-12-09 15:34:00
9:54 AM,35.6,28.4,75,29.85,1.0,ESE,16.1,24.2,0.01,Snow,Light Snow,120,2012-12-09 15:54:00
10:14 AM,35.6,28.4,75,29.85,1.5,ESE,15.0,-,N/A,Snow,Light Snow,120,2012-12-09 16:14:00
10:33 AM,35.6,28.4,75,29.84,1.5,ESE,16.1,23.0,N/A,Snow,Light Snow,110,2012-12-09 16:33:00
10:54 AM,35.6,28.4,75,29.83,1.5,ESE,15.0,21.9,N/A,Snow,Light Snow,120,2012-12-09 16:54:00
11:13 AM,35.6,28.4,75,29.83,1.8,ESE,15.0,-,N/A,Snow,Light Snow,120,2012-12-09 17:13:00
11:33 AM,35.6,28.4,75,29.82,1.5,ESE,13.8,-,0.01,Snow,Light Snow,110,2012-12-09 17:33:00
11:53 AM,35.6,28.4,75,29.80,1.5,ESE,12.7,-,0.01,Snow,Light Snow,120,2012-12-09 17:53:00
12:13 PM,35.6,28.4,75,29.80,0.8,ESE,11.5,-,0.01,Snow,Light Snow,110,2012-12-09 18:13:00
12:33 PM,35.6,30.2,81,29.79,0.5,ESE,10.4,-,0.01,Snow,Light Snow,110,2012-12-09 18:33:00
12:53 PM,35.6,28.4,75,29.78,1.0,ESE,10.4,-,0.02,Snow,Light Snow,110,2012-12-09 18:53:00
1:13 PM,35.6,30.2,81,29.77,0.5,ESE,10.4,-,0.01,Snow,Light Snow,110,2012-12-09 19:13:00
1:34 PM,35.6,30.2,81,29.76,0.5,ESE,10.4,-,0.01,Snow,Snow,110,2012-12-09 19:34:00
1:54 PM,35.6,30.2,81,29.76,0.5,ESE,8.1,-,0.02,Snow,Light Snow,110,2012-12-09 19:54:00
2:13 PM,35.6,30.2,81,29.76,1.0,East,6.9,-,N/A,Snow,Light Snow,100,2012-12-09 20:13:00
2:33 PM,35.6,30.2,81,29.76,1.5,East,9.2,-,0.01,Snow,Light Snow,90,2012-12-09 20:33:00
2:53 PM,35.6,30.2,81,29.76,1.0,ESE,4.6,-,0.01,Snow,Light Snow,120,2012-12-09 20:53:00
3:13 PM,35.6,30.2,81,29.76,1.5,East,8.1,-,N/A,Snow,Light Snow,90,2012-12-09 21:13:00
3:33 PM,35.6,30.2,81,29.76,1.8,East,5.8,-,N/A,Snow,Light Snow,100,2012-12-09 21:33:00
3:53 PM,35.6,30.2,81,29.76,1.2,East,6.9,-,N/A,Snow,Light Snow,80,2012-12-09 21:53:00
4:13 PM,35.6,30.2,81,29.76,1.5,East,6.9,-,N/A,,Overcast,90,2012-12-09 22:13:00
4:34 PM,35.6,30.2,81,29.76,1.8,East,4.6,-,N/A,,Overcast,80,2012-12-09 22:34:00
4:53 PM,35.6,30.2,81,29.76,2.5,East,5.8,-,N/A,,Overcast,80,2012-12-09 22:53:00
5:13 PM,33.8,28.4,81,29.77,2.0,East,5.8,-,N/A,,Overcast,80,2012-12-09 23:13:00
5:33 PM,33.8,28.4,81,29.76,2.0,ENE,5.8,-,N/A,Snow,Light Snow,60,2012-12-09 23:33:00
5:53 PM,33.8,28.4,81,29.76,2.5,ENE,5.8,-,N/A,Snow,Light Snow,70,2012-12-09 23:53:00
6:14 PM,33.8,28.4,81,29.77,4.0,ENE,4.6,-,N/A,,Haze,60,2012-12-10 00:14:00
6:34 PM,33.8,28.4,81,29.77,4.0,NE,4.6,-,N/A,Snow,Light Snow,50,2012-12-10 00:34:00
6:53 PM,33.8,28.4,81,29.77,3.0,NNE,9.2,-,N/A,,Drizzle,30,2012-12-10 00:53:00
7:13 PM,33.8,28.4,81,29.78,2.5,NNE,9.2,-,N/A,,Drizzle,20,2012-12-10 01:13:00
7:33 PM,33.8,26.6,75,29.78,0.8,North,8.1,-,N/A,Snow,Snow,10,2012-12-10 01:33:00
7:53 PM,32.0,26.6,80,29.79,1.2,North,11.5,-,N/A,Snow,Light Snow,10,2012-12-10 01:53:00
8:13 PM,32.0,26.6,80,29.79,4.0,North,11.5,-,N/A,Snow,Light Snow,360,2012-12-10 02:13:00
8:33 PM,32.0,26.6,80,29.80,2.5,North,12.7,-,N/A,,Overcast,360,2012-12-10 02:33:00
8:53 PM,30.2,26.6,86,29.80,5.0,North,12.7,-,N/A,,Overcast,360,2012-12-10 02:53:00
9:14 PM,30.2,24.8,80,29.80,5.0,North,12.7,18.4,N/A,,Overcast,10,2012-12-10 03:14:00
9:34 PM,30.2,24.8,80,29.82,5.0,North,12.7,-,N/A,Snow,Light Snow,350,2012-12-10 03:34:00
9:54 PM,30.2,24.8,80,29.82,10.0,North,11.5,-,N/A,Snow,Light Snow,350,2012-12-10 03:54:00
10:33 PM,30.2,24.8,80,29.83,10.0,NNW,13.8,-,N/A,,Overcast,340,2012-12-10 04:33:00
10:54 PM,30.2,24.8,80,29.83,10.0,NNW,13.8,-,N/A,,Overcast,340,2012-12-10 04:54:00
11:13 PM,30.2,24.8,80,29.84,10.0,NW,18.4,21.9,N/A,,Overcast,320,2012-12-10 05:13:00
11:33 PM,28.4,21.2,74,29.85,10.0,NW,17.3,-,N/A,,Overcast,320,2012-12-10 05:33:00
11:53 PM,26.6,19.4,74,29.85,7.0,NW,13.8,23.0,N/A,,Overcast,320,2012-12-10 05:53:00